Regional Weather Roundup
Issued by NWS Charleston, WV

Home | Current Version | Previous Version | Graphics & Text | Print | Product List | Glossary On
Versions: 1 2 3 4 5 6 7 8 9 10 11 12 13 14 15 16 17 18 19 20 21 22 23 24 25 26 27 28 29 30 31 32 33 34 35 36 37 38 39 40 41 42 43 44 45 46 47 48 49 50
484
ASUS41 KRLX 081810
RWRRLX
West Virginia Regional Weather Roundup
National Weather Service Charleston WV
100 PM EST MON FEB 08 2016

Note: "fair" indicates few or no clouds below 12,000 feet with no
significant weather and/or obstructions to visibility.

WVZ003-081900-
Northern Panhandle of West Virginia

CITY           SKY/WX    TMP DP  RH WIND       PRES   REMARKS
WHEELING       LGT RAIN  36  32  85 S12       29.58F
$$

WVZ009-081900-
Northwest West Virginia

CITY           SKY/WX    TMP DP  RH WIND       PRES   REMARKS
PARKERSBURG    LGT RAIN  37  34  89 SW10      29.63F
$$

WVZ006-081900-
Western West Virginia

CITY           SKY/WX    TMP DP  RH WIND       PRES   REMARKS
HUNTINGTON     CLOUDY    41  33  73 SW7       29.64F
$$

WVZ015-081900-
West Central West Virginia

CITY           SKY/WX    TMP DP  RH WIND       PRES   REMARKS
CHARLESTON     PTSUNNY   43  31  62 SW14G22   29.63F
$$

WVZ022-031-081900-
North Central West Virginia

CITY           SKY/WX    TMP DP  RH WIND       PRES   REMARKS
CLARKSBURG     LGT RAIN  41  31  67 S12       29.60F
MORGANTOWN     CLOUDY    46  21  37 SW12G18   29.58F
$$

WVZ025-035-042-045-081900-
Southern West Virginia

CITY           SKY/WX    TMP DP  RH WIND       PRES   REMARKS
BECKLEY        CLOUDY    36  30  79 S8        29.60F
LOGAN          CLOUDY    41  28  60 VRB6      29.61F
BLUEFIELD      SNOW      31  29  92 SW10      29.62F VSB 1/2
LEWISBURG      LGT SNOW  35  33  94 S3        29.63F VSB 3/4
$$

WVZ047-081900-
Northern Mountains of West Virginia

CITY           SKY/WX    TMP DP  RH WIND       PRES   REMARKS
ELKINS         CLOUDY    43  22  43 SW13G21   29.59F
$$

WVZ052-081900-
Eastern Panhandle of West Virginia

CITY           SKY/WX    TMP DP  RH WIND       PRES   REMARKS
MARTINSBURG      N/A     42  23  46 VRB7      29.70F
PETERSBURG     PTSUNNY   46  26  45 CALM      29.63F
$$




USA.gov is the U.S. government's official web portal to all federal, state and local government web resources and services.